Weather History for Buckhannon, WV

Change the Weather History Date:

Wednesday, November 7, 2012

  Actual Average (KEKN) Record (KEKN)
Temperature  
Mean Temperature 36 °F 45 °F  
Max Temperature 41 °F 57 °F 78 °F (1945)
Min Temperature 32 °F 32 °F 10 °F (1930)
Degree Days  
Heating Degree Days 28 20  
Month to date heating degree days 136  
Since 1 July heating degree days 727  
Cooling Degree Days 0 0  
Month to date cooling degree days 0  
Year to date cooling degree days 475  
Moisture  
Dew Point 29 °F    
Average Humidity 79    
Maximum Humidity 93    
Minimum Humidity 61    
Precipitation  
Precipitation 0.00 in 0.11 in 1.66 in (1912)
Month to date precipitation 0.78  
Year to date precipitation 40.07  
Snow  
Snow 0.00 in - - ()
Month to date snowfall  
Since 1 September snowfall  
Snow Depth -    
Sea Level Pressure  
Sea Level Pressure 29.93 in    
Wind  
Wind Speed 2 mph (North)    
Max Wind Speed 9 mph    
Max Gust Speed -    
Visibility 10 miles    
Events      
T = Trace of Precipitation, MM = Missing Value Source: NWS Daily Summary

Daily Weather History Graph

Daily Weather History Graph

Search for Another Location

Airport:

Trip Planner

Search our weather history database for the weather conditions in past years. The results will help you decide how hot, cold, wet, or windy it might be!

Date:

Astronomy

Nov. 07, 2012 Rise Set
Actual Time 6:55 AM EST 5:13 PM EST
Civil Twilight 6:27 AM EST 5:41 PM EST
Nautical Twilight 5:55 AM EST 6:13 PM EST
Astronomical Twilight 5:24 AM EST 6:44 PM EST
Moon No Moon Rise 1:18 PM EST (11/7)
Length of Visible Light 11h 14m
Length of Day
10h 17m
Last Quarter, 43% of the Moon is Illuminated
Nov 7
Last Quarter
Nov 13
New
Nov 20
First Quarter
Nov 28
Full
Dec 6
Last Quarter

Hourly Weather History & Observations

Time (EST) Temp. Windchill Dew Point Humidity Pressure Visibility Wind Dir Wind Speed Gust Speed Precip Events Conditions
12:15 AM 35.6 °F - 28.4 °F 75% 29.91 in 10.0 mi Calm Calm - N/A   Clear
12:35 AM 33.8 °F 27.7 °F 28.4 °F 81% 29.90 in 10.0 mi ESE 6.9 mph - N/A   Clear
12:55 AM 33.8 °F - 28.4 °F 81% 29.90 in 10.0 mi Calm Calm - N/A   Clear
1:15 AM 33.8 °F - 28.4 °F 81% 29.90 in 10.0 mi Calm Calm - N/A   Clear
1:35 AM 32.0 °F - 30.2 °F 93% 29.90 in 10.0 mi Calm Calm - N/A   Clear
1:55 AM 32.0 °F - 28.4 °F 87% 29.89 in 5.0 mi Calm Calm - N/A   Haze
2:15 AM 33.8 °F - 28.4 °F 81% 29.89 in 5.0 mi Calm Calm - N/A   Haze
2:35 AM 33.8 °F - 28.4 °F 81% 29.89 in 10.0 mi Calm Calm - N/A   Clear
2:55 AM 33.8 °F - 28.4 °F 81% 29.89 in 10.0 mi Calm Calm - N/A   Clear
3:15 AM 32.0 °F - 28.4 °F 87% 29.89 in 10.0 mi Calm Calm - N/A   Clear
3:35 AM 32.0 °F - 28.4 °F 87% 29.88 in 10.0 mi Calm Calm - N/A   Clear
3:55 AM 32.0 °F - 28.4 °F 87% 29.88 in 10.0 mi Calm Calm - N/A   Clear
4:15 AM 32.0 °F - 30.2 °F 93% 29.88 in 10.0 mi Calm Calm - N/A   Clear
4:35 AM 32.0 °F - 30.2 °F 93% 29.88 in 10.0 mi Calm Calm - N/A   Clear
4:55 AM 32.0 °F - 30.2 °F 93% 29.87 in 10.0 mi Calm Calm - N/A   Clear
5:15 AM 32.0 °F - 30.2 °F 93% 29.87 in 10.0 mi Calm Calm - N/A   Clear
5:35 AM 32.0 °F - 30.2 °F 93% 29.87 in 10.0 mi Calm Calm - N/A   Clear
5:55 AM 32.0 °F - 30.2 °F 93% 29.88 in 10.0 mi Calm Calm - N/A   Clear
6:15 AM 32.0 °F - 30.2 °F 93% 29.88 in 10.0 mi Calm Calm - N/A   Clear
6:35 AM 32.0 °F - 30.2 °F 93% 29.88 in 10.0 mi Calm Calm - N/A   Clear
6:55 AM 32.0 °F - 30.2 °F 93% 29.88 in 9.0 mi Calm Calm - N/A   Clear
7:15 AM 32.0 °F - 30.2 °F 93% 29.89 in 10.0 mi Calm Calm - N/A   Clear
7:35 AM 32.0 °F - 30.2 °F 93% 29.90 in 6.0 mi Calm Calm - N/A   Clear
7:55 AM 32.0 °F - 30.2 °F 93% 29.90 in 10.0 mi Calm Calm - N/A   Clear
8:15 AM 32.0 °F - 30.2 °F 93% 29.91 in 9.0 mi Calm Calm - N/A   Clear
8:35 AM 32.0 °F - 30.2 °F 93% 29.92 in 9.0 mi Calm Calm - N/A   Clear
8:55 AM 32.0 °F - 30.2 °F 93% 29.91 in 10.0 mi Calm Calm - N/A   Clear
9:15 AM 33.8 °F - 32.0 °F 93% 29.91 in 10.0 mi Calm Calm - N/A   Clear
9:35 AM 35.6 °F - 32.0 °F 87% 29.91 in 10.0 mi Calm Calm - N/A   Clear
9:55 AM 37.4 °F - 32.0 °F 81% 29.91 in 10.0 mi Calm Calm - N/A   Clear
10:15 AM 37.4 °F - 32.0 °F 81% 29.91 in 10.0 mi Calm Calm - N/A   Clear
10:35 AM 39.2 °F - 32.0 °F 75% 29.91 in 10.0 mi Calm Calm - N/A   Clear
10:55 AM 39.2 °F - 30.2 °F 70% 29.91 in 10.0 mi Calm Calm - N/A   Clear
11:15 AM 41.0 °F - 32.0 °F 70% 29.91 in 10.0 mi Calm Calm - N/A   Clear
11:35 AM 41.0 °F 39.0 °F 30.2 °F 65% 29.91 in 10.0 mi NNW 3.5 mph - N/A   Clear
11:55 AM 41.0 °F - 30.2 °F 65% 29.90 in 10.0 mi Calm Calm - N/A   Clear
12:15 PM 41.0 °F 37.1 °F 30.2 °F 65% 29.90 in 10.0 mi NNE 5.8 mph - N/A   Clear
12:35 PM 41.0 °F - 30.2 °F 65% 29.89 in 10.0 mi Calm Calm - N/A   Clear
12:55 PM 41.0 °F - 32.0 °F 70% 29.89 in 10.0 mi Calm Calm - N/A   Clear
1:15 PM 41.0 °F - 30.2 °F 65% 29.89 in 10.0 mi Calm Calm - N/A   Clear
1:35 PM 41.0 °F 38.0 °F 30.2 °F 65% 29.89 in 10.0 mi NNW 4.6 mph - N/A   Clear
1:55 PM 41.0 °F 38.0 °F 30.2 °F 65% 29.89 in 10.0 mi North 4.6 mph - N/A   Clear
2:15 PM 41.0 °F - 30.2 °F 65% 29.90 in 10.0 mi Calm Calm - N/A   Clear
2:35 PM 41.0 °F - 30.2 °F 65% 29.90 in 10.0 mi Calm Calm - N/A   Clear
2:55 PM 41.0 °F 38.0 °F 30.2 °F 65% 29.90 in 10.0 mi NNW 4.6 mph - N/A   Clear
3:15 PM 41.0 °F 36.4 °F 30.2 °F 65% 29.91 in 10.0 mi NNE 6.9 mph - N/A   Clear
3:35 PM 41.0 °F 37.1 °F 28.4 °F 61% 29.91 in 10.0 mi North 5.8 mph - N/A   Clear
3:55 PM 39.2 °F 35.9 °F 28.4 °F 65% 29.92 in 10.0 mi North 4.6 mph - N/A   Clear
4:15 PM 39.2 °F 35.0 °F 28.4 °F 65% 29.92 in 10.0 mi North 5.8 mph - N/A   Clear
4:35 PM 39.2 °F 33.6 °F 28.4 °F 65% 29.93 in 10.0 mi North 8.1 mph - N/A   Clear
4:55 PM 39.2 °F 34.2 °F 28.4 °F 65% 29.94 in 10.0 mi North 6.9 mph - N/A   Clear
5:15 PM 37.4 °F 32.8 °F 28.4 °F 70% 29.95 in 10.0 mi North 5.8 mph - N/A   Clear
5:35 PM 37.4 °F 32.8 °F 28.4 °F 70% 29.95 in 10.0 mi North 5.8 mph - N/A   Clear
5:55 PM 37.4 °F 32.1 °F 28.4 °F 70% 29.96 in 10.0 mi North 6.9 mph - N/A   Clear
6:15 PM 37.4 °F 32.1 °F 28.4 °F 70% 29.97 in 10.0 mi NNE 6.9 mph - N/A   Clear
6:35 PM 37.4 °F 30.8 °F 28.4 °F 70% 29.97 in 10.0 mi North 9.2 mph - N/A   Clear
6:55 PM 37.4 °F 31.4 °F 28.4 °F 70% 29.98 in 10.0 mi North 8.1 mph - N/A   Clear
7:15 PM 35.6 °F 29.2 °F 28.4 °F 75% 29.99 in 10.0 mi NNE 8.1 mph - N/A   Clear
7:35 PM 35.6 °F 29.9 °F 28.4 °F 75% 29.99 in 10.0 mi North 6.9 mph - N/A   Clear
7:55 PM 35.6 °F 29.9 °F 28.4 °F 75% 29.99 in 10.0 mi North 6.9 mph - N/A   Clear
8:15 PM 35.6 °F 30.7 °F 28.4 °F 75% 30.00 in 10.0 mi North 5.8 mph - N/A   Clear
8:35 PM 35.6 °F 31.7 °F 28.4 °F 75% 30.00 in 10.0 mi North 4.6 mph - N/A   Clear
8:55 PM 33.8 °F 27.7 °F 28.4 °F 81% 30.00 in 10.0 mi North 6.9 mph - N/A   Clear
9:15 PM 33.8 °F 27.7 °F 28.4 °F 81% 30.01 in 10.0 mi North 6.9 mph - N/A   Clear
9:35 PM 33.8 °F 28.6 °F 28.4 °F 81% 30.02 in 10.0 mi North 5.8 mph - N/A   Clear
9:55 PM 33.8 °F 29.6 °F 28.4 °F 81% 30.02 in 10.0 mi NNE 4.6 mph - N/A   Clear
10:15 PM 33.8 °F 30.8 °F 28.4 °F 81% 30.01 in 10.0 mi NNE 3.5 mph - N/A   Clear
10:35 PM 33.8 °F - 28.4 °F 81% 30.01 in 10.0 mi Calm Calm - N/A   Clear
10:55 PM 33.8 °F - 28.4 °F 81% 30.01 in 10.0 mi Calm Calm - N/A   Clear
11:15 PM 33.8 °F - 26.6 °F 75% 30.01 in 10.0 mi Calm Calm - N/A   Clear
11:35 PM 32.0 °F - 26.6 °F 80% 30.01 in 10.0 mi Calm Calm - N/A   Clear
11:55 PM 32.0 °F - 28.4 °F 87% 30.01 in 10.0 mi Calm Calm - N/A   Clear